This is the latest recevied weather packets stored in our database for station/object VK4TOM-13. If no packets are shown the sender has not sent any weather packets the latest 10 day(s).
| Time | Temp. | Humidity | Pressure | Rain* | Wind** | Luminosity | Snow |
|---|---|---|---|---|---|---|---|
| 1778244254 | 12.22° C | 70% | 1019.9 hPa | 0 mm | - | - | - |
| 1778243653 | 12.22° C | 70% | 1019.9 hPa | 0 mm | - | - | - |
| 1778243052 | 12.78° C | 70% | 1020 hPa | 0 mm | - | - | - |
| 1778242451 | 12.78° C | 70% | 1020.1 hPa | 0 mm | - | - | - |
| 1778241850 | 12.78° C | 70% | 1020 hPa | 0 mm | - | - | - |
| 1778241249 | 12.78° C | 66% | 1019.9 hPa | 0 mm | - | - | - |
| 1778240648 | 13.33° C | 63% | 1020 hPa | 0 mm | - | - | - |
| 1778240047 | 13.33° C | 61% | 1020 hPa | 0 mm | - | - | - |
| 1778239446 | 13.33° C | 58% | 1020 hPa | 0 mm | - | - | - |
| 1778238845 | 13.89° C | 56% | 1020.1 hPa | 0 mm | - | - | - |
| 1778238244 | 13.89° C | 53% | 1020.1 hPa | 0 mm | - | - | - |
| 1778237643 | 14.44° C | 51% | 1020 hPa | 0 mm | - | - | - |
| 1778237041 | 14.44° C | 50% | 1019.9 hPa | 0 mm | - | - | - |
| 1778236440 | 14.44° C | 49% | 1019.9 hPa | 0 mm | - | - | - |
| 1778235839 | 15° C | 49% | 1019.7 hPa | 0 mm | - | - | - |
| 1778235238 | 15.56° C | 47% | 1019.7 hPa | 0 mm | - | - | - |
| 1778234637 | 15.56° C | 46% | 1019.5 hPa | 0 mm | - | - | - |
| 1778234036 | 16.11° C | 45% | 1019.3 hPa | 0 mm | - | - | - |
| 1778233435 | 16.11° C | 43% | 1019.2 hPa | 0 mm | - | - | - |
| 1778232834 | 16.67° C | 42% | 1019 hPa | 0 mm | - | - | - |
| 1778232233 | 16.67° C | 42% | 1018.9 hPa | 0 mm | - | - | - |
| 1778231632 | 16.67° C | 41% | 1019 hPa | 0 mm | - | - | - |
| 1778231031 | 16.67° C | 40% | 1018.8 hPa | 0 mm | - | - | - |
| 1778230430 | 17.22° C | 40% | 1018.6 hPa | 0 mm | - | - | - |
| 1778229828 | 17.22° C | 38% | 1018.4 hPa | 0 mm | - | - | - |
* Rain since midnight (hover to see other rain measurements)
** Current wind speed in m/s (hover to see current wind gust speed)